Weather in Vizyabozh

Russia / Komi Republic     61°44′28″N   51°12′47″E
temp.,
°C
wind,
m/s
gust,
m/s
humid.,
%
clouds,
%
prec.,
mm/h
press.,
hPa
HPBL,
m
8 may, sat
sat800:00+10ssw4108986 0.2 1008545
03:00+6w4109199 1.4 1012853
06:00+8wsw49830 0.0 1013683
09:00+11wsw47595 0.0 10161327
12:00+14w344376 0.0 10171749
15:00+15wsw22385 0.0 10171908
18:00+14sse11465 0.0 101736
21:00+8ese236249 0.0 101740
9 may, sun
sun900:00+7ese2107482 0.0 1017176
03:00+6ese4117948 0.0 1016239
06:00+10se41273100 0.0 1015548
09:00+15sse5961100 0.0 10141034
12:00+19sse61148100 0.0 10131667
15:00+20sse61242100 0.0 10122280
18:00+18sse51247100 0.0 10121218
21:00+16sse51554100 0.0 1012722
10 may, mon
mon1000:00+14sse51663100 0.0 1012799
03:00+13s51468100 0.1 1012689
06:00+12ssw41087100 1.3 1012919
09:00+8w4792100 5.0 1017641
12:00+4wnw4895100 0.8 1022686
15:00+10nnw275264 0.9 10231777
18:00+11nw254515 0.0 1024512
21:00+6wnw22634 0.0 102730
11 may, tue
tue1100:00+5w12705 0.0 102812
03:00+4sw237321 0.0 102950
06:00+8sw37607 0.0 1029281
09:00+13sw5944100 0.0 10281585
12:00+9sw41172100 0.4 1028683
15:00+9wsw3108299 1.0 1028493
18:00+11sse1185100 0.0 102712
21:00+11ssw2593100 0.0 102797
12 may, wed
wed1200:00+11wsw312947 0.0 1027300
03:00+10wsw311957 0.0 1028250
06:00+13wsw398470 0.0 1028325
09:00+19w475999 0.0 1028840
12:00+22w474768 0.0 10271625
15:00+23w4742100 0.0 10271838
18:00+20w2654100 0.0 1027219
21:00+15wsw24755 0.0 102766